User: anonymous   Login
Location: Gorze? G�rny
(49.8500°N, 19.5000°E)
Time: 07:56:49
(UTC+00:00)
Language:

Okean 1-7 - Orbit

View from above orbital plane
View from above orbital plane
View from above satellite
View from above satellite

Ground track
Ground track

The orbit data is extracted from the following two-line orbital elements,

1 23317U 94066A   22276.86474441  .00002051  00000-0  21682-3 0  9998
2 23317  82.5340  97.8758 0020697 117.8774 242.4543 14.88604923513595
Epoch (UTC): 03 October 2022 20:45:13
Eccentricity: 0.0020697
inclination: 82.5340°
perigee height: 588 km
apogee height: 617 km
right ascension of ascending node: 97.8758°
argument of perigee: 117.8774°
revolutions per day: 14.88604923
mean anomaly at epoch: 242.4543°
orbit number at epoch: 51359

The dashed part of the orbit path shows where the satellite is in the earth's shadow,  

DLR